Commit Graph
217 Commits
Author SHA1 Message Date
Vince f1a994815f Pathfinder Community Sheet v1.795 - bug fix
- Fixed; ability damage set to 0 (due to NaN error) and power attack damage bonus erroneously applied to ranged attacks.
2021-08-05 22:50:59 -07:00
wing-it e12546df20 New translations translation.json (German) 2021-07-16 14:40:53 -04:00
wing-it edc40a82fe New translations translation.json (Greek) 2021-07-16 14:40:48 -04:00
wing-it 370c1db1a8 New translations translation.json (Hebrew) 2021-07-16 14:40:42 -04:00
wing-it 4639bc72dd New translations translation.json (Hungarian) 2021-07-16 14:40:37 -04:00
wing-it f4065d1ea0 New translations translation.json (Italian) 2021-07-16 14:40:32 -04:00
wing-it 7e8f10c502 New translations translation.json (Japanese) 2021-07-16 14:40:27 -04:00
wing-it 7de42104e3 New translations translation.json (Danish) 2021-07-16 14:40:24 -04:00
wing-it 2a31bfb6eb New translations translation.json (French) 2021-07-16 14:40:22 -04:00
wing-it b2f44bcb29 New translations translation.json (Spanish) 2021-07-16 14:40:17 -04:00
wing-it 7135bc4576 New translations translation.json (Afrikaans) 2021-07-16 14:40:13 -04:00
wing-it da9eb3a6fc New translations translation.json (Catalan) 2021-07-16 14:40:07 -04:00
wing-it c156b8a374 New translations translation.json (Czech) 2021-07-16 14:39:58 -04:00
wing-it 60f5cb3334 New translations translation.json (Swedish) 2021-07-16 14:39:47 -04:00
wing-it 35cb7d928f New translations translation.json (Turkish) 2021-07-16 14:39:42 -04:00
wing-it 6b78a62d1f New translations translation.json (Ukrainian) 2021-07-16 14:39:34 -04:00
wing-it 78b646b984 New translations translation.json (Chinese Traditional) 2021-07-16 14:39:30 -04:00
wing-it c365057ce4 New translations translation.json (English) 2021-07-16 14:39:25 -04:00
wing-it 72f88e2810 New translations translation.json (Korean) 2021-07-16 14:39:16 -04:00
wing-it fffae2d23f New translations translation.json (Dutch) 2021-07-16 14:39:11 -04:00
wing-it 93e73abe80 New translations translation.json (Polish) 2021-07-16 14:39:06 -04:00
wing-it 3326c6136e New translations translation.json (Slovenian) 2021-07-16 14:39:04 -04:00
wing-it 6be69299e7 New translations translation.json (Portuguese) 2021-07-16 14:39:00 -04:00
wing-it 744eb73f36 New translations translation.json (Russian) 2021-07-16 14:38:55 -04:00
Vince 6714c0ecec Update pathfinder_community.html 2021-07-15 23:27:12 -07:00
Vince 6fc3db3d74 Pathfinder Community v1.794 update
- Added common buff options for Power Attack, Deadly Aim, and Combat Expertise. Power Attack includes a new buff to handle the power attack damage. 'Power Attack Dmg' This was done so that the buff's bonus can be passed to each attack where the damage multiplier can be applied per attack to handle two-handed, off-hand, etc. (thank you player-03 for your help)
- Fixed; Tokenbar changes to HP should now trigger sheet events as expected.
- Added more emphasis to most of the "total" read-only fields
- Small adjustemnts to the rowID fields to make them easier to select and copy.
- Known Issue: linked attacks that have been generated from an Ability or Spell will have their 'Weapon Notes' reset to their 'sheet generated notes' if the "Include link..." sheet setting is toggled or the linked Ability or Spell is edited.
2021-07-15 23:21:29 -07:00
Vince 9bdfe78cc6 Pathfinder Community v1.793
- Fixed; kineticistburn linked to a tokenbar was not triggering buffs recalculations.
- Small adjustments to roll templates.
2021-06-13 22:29:36 -07:00
wing-it 55bbca1747 New translations translation.json (Russian) 2021-06-08 17:34:18 -04:00
Vince 79f7a7ad96 PF Community Sheet v1.792 - a few small changes
- making overall adjustments for CSE's css changes.
- Small adjustments to the regular roll template.
- Fixed; the 'Show' in chat menu column option, was not toggling Mythic Abilities and Feats.
- Inverted the order of fields for extra damage to match roll template output. Type then macro.
- Fixed; 3-column layout of the NPC skills list.
2021-06-06 17:03:39 -07:00
wing-it 4939391334 New translations translation.json (Russian) 2021-06-01 16:41:28 -04:00
wing-it 795945c16f New translations translation.json (Russian) 2021-06-01 13:23:27 -04:00
wing-it 7f134bdcb1 New translations translation.json (Russian) 2021-05-31 16:57:40 -04:00
wing-it fc6bb3d9b6 New translations translation.json (Russian) 2021-05-31 14:02:15 -04:00
wing-it 39a2c169a9 New translations translation.json (Chinese Traditional) 2021-05-31 08:09:25 -04:00
wing-it bb3ee3d1d3 New translations translation.json (Russian) 2021-05-29 15:36:13 -04:00
wing-it 94566f24a2 New translations translation.json (Russian) 2021-05-29 12:26:20 -04:00
Vince 28bf17cace Pathfinder Community Sheet v1.791 - item weight bug fix
- Fixed; fractional item weight was being rounded down.
2021-05-24 21:01:26 -07:00
wing-it d0ffc6fddd New translations translation.json (Portuguese) 2021-05-18 14:12:51 -04:00
wing-it c05f6eab23 New translations translation.json (German) 2021-05-17 16:28:09 -04:00
wing-it e3acd33d56 New translations translation.json (Greek) 2021-05-17 16:28:06 -04:00
wing-it ac46f17c5a New translations translation.json (Hungarian) 2021-05-17 16:28:00 -04:00
wing-it 1a539d2696 New translations translation.json (Italian) 2021-05-17 16:27:56 -04:00
wing-it 8e4c88b127 New translations translation.json (Hebrew) 2021-05-17 16:27:55 -04:00
wing-it a07a18e308 New translations translation.json (Danish) 2021-05-17 16:27:53 -04:00
wing-it 9ff0738f39 New translations translation.json (French) 2021-05-17 16:27:50 -04:00
wing-it 82bfa49272 New translations translation.json (Spanish) 2021-05-17 16:27:46 -04:00
wing-it ccb6b832c7 New translations translation.json (Catalan) 2021-05-17 16:27:40 -04:00
wing-it 8ee7d68e2a New translations translation.json (Czech) 2021-05-17 16:27:37 -04:00
wing-it 289f976969 New translations translation.json (Afrikaans) 2021-05-17 16:27:36 -04:00
wing-it f4d2246747 New translations translation.json (Swedish) 2021-05-17 16:27:30 -04:00